Regional Weather Roundup
Issued by NWS Green Bay, WI

Home | Current Version | Previous Version | Graphics & Text | Print | Product List | Glossary Off
Versions: 1 2 3 4 5 6 7 8 9 10 11 12 13 14 15 16 17 18 19 20 21 22 23 24 25 26 27 28 29 30 31 32 33 34 35 36 37 38 39 40 41 42 43 44 45 46 47 48 49 50

000
ASUS43 KGRB 250500
RWRGRB

NORTH-CENTRAL AND NORTHEAST WISCONSIN REGIONAL WEATHER ROUNDUP
NATIONAL WEATHER SERVICE GREEN BAY WI
1100 PM CST FRI FEB 24 2017

WIZ005-009-010>012-018-019-250600-
NORTH CENTRAL WISCONSIN

CITY           SKY/WX    TMP DP  RH WIND       PRES   REMARKS
IRONWOOD       LGT SNOW  18  14  86 N8        29.76F VSB 3/4 WCI   7
MANITOWISH WTR NOT AVBL
ARBOR VITAE    NOT AVBL
EAGLE RIVER    NOT AVBL
LAND O LAKES   NOT AVBL
RHINELANDER    LGT SNOW  17  14  88 N9G16     29.64F VSB 1   WCI   6
PHILLIPS       NOT AVBL
ANTIGO         NOT AVBL
TOMAHAWK       NOT AVBL
MERRILL        NOT AVBL
$$

WIZ013-073-250600-
NORTHEAST WISCONSIN

CITY           SKY/WX    TMP DP  RH WIND       PRES   REMARKS
IRON MOUNTAIN  LGT SNOW  20  14  77 NW20      29.58F WCI   4
MARINETTE      MIX PCPN  22  20  92 MISG      29.57F
$$

WIZ017-030-035>037-045-250600-
CENTRAL WISCONSIN

CITY           SKY/WX    TMP DP  RH WIND       PRES   REMARKS
MEDFORD        NOT AVBL
WAUSAU         LGT SNOW  18  14  84 NW14G20   29.64S FOG     WCI   4
MOSINEE        NOT AVBL
MARSHFIELD     LGT SNOW  18  13  80 N15       29.67S WCI   4
WISC RAPIDS    LGT SNOW  19  16  86 N10       29.67F FOG     WCI   8
STEVENS POINT  NOT AVBL
WAUPACA        NOT AVBL
SHAWANO        CLOUDY    23  19  85 CALM      29.62S
CLINTONVILLE   NOT AVBL
WAUTOMA        FLURRIES  20  17  88 N9G17     29.66S WCI   9
$$

WIZ038-039-048-051-250600-
FOX VALLEY

CITY           SKY/WX    TMP DP  RH WIND       PRES   REMARKS
NWS GREEN BAY  CLOUDY    23  22  96 NW12G23   29.59S
APPLETON       CLOUDY    21  21 100 NW8       29.59R FOG
OSHKOSH        FRZ RAIN  23  20  88 NW16      29.60S FOG     WCI  10
FOND DU LAC    LGT SNOW  24  20  84 N14G24    29.61R FOG
$$

WIZ022-050-052-250600-
EAST CENTRAL WISCONSIN

CITY           SKY/WX    TMP DP  RH WIND       PRES   REMARKS
EPHRAIM        NOT AVBL
WASHINGTON ISL NOT AVBL
STURGEON BAY   MIX PCPN  24  22  91 MISG      29.55S FOG
MANITOWOC      NOT AVBL
SHEBOYGAN      CLOUDY    25  22  88 NW15      29.57R
$$

LMZ563-521-522-541>543-250600-
LAKESHORE

STATION/POSITION TIME  TEMP    WIND        PRES    VSBY  WAVE
                       AIR SEA DIR/SP/G                  HT/PER
                 (UTC) (F)     (DEG/KT/KT) (MB)    (MI)  (FT/S)
SHEBOYGAN LKSHOR 0400   26     320/  8/  9 1001.3S
KEWAUNEE LKSHORE 0430   25     330/ 11/ 19 1000.0F
NORTHPORT PIER   0440   27     350/  4/  5 1000.3F
SISTER BAY LKSHO 0350   27        CALM       N/A
MENOMINEE LKSHOR 0430   23     310/ 19/ 23 1000.7R
$$




USA.gov is the U.S. government's official web portal to all federal, state and local government web resources and services.